Overview Statistics Trail Chart Weather Telemetry Raw packets
 

This is the latest recevied weather packets stored in our database for station/object IONIA-WX. If no packets are shown the sender has not sent any weather packets the latest 10 day(s).

<< 1 2 3 4 >>
Time Temp. Humidity Pressure Rain* Wind** Luminosity Snow
1788634824 25.56° C 64% 985.7 hPa 0 mm - - -
1788633920 25.56° C 68% 986.3 hPa 0 mm - - -
1788633020 25.56° C 63% 986.2 hPa 0 mm - - -
1788632119 25° C 63% 986.2 hPa 0 mm - - -
1788631221 25° C 63% 986.2 hPa 0 mm - - -
1788630320 25° C 66% 986.4 hPa 0 mm - - -
1788629420 24.44° C 66% 985.8 hPa 0 mm - - -
1788628520 24.44° C 66% 985.8 hPa 0 mm - - -
1788627625 23.89° C 66% 985.8 hPa 0 mm - - -
1788626719 23.89° C 74% 986.5 hPa 0 mm - - -
1788625820 22.22° C 77% 985.3 hPa 0 mm - - -
1788624917 22.22° C 77% 985.3 hPa 0 mm - - -
1788624017 21.67° C 77% 985.3 hPa 0 mm - - -
1788623118 21.67° C 80% 986.5 hPa 0 mm - - -
1788622219 22.22° C 81% 985.4 hPa 0 mm - - -
1788621319 21.67° C 81% 985.4 hPa 0 mm - - -
1788620417 21.11° C 81% 985.4 hPa 0 mm - - -
1788619531 21.11° C 86% 985.8 hPa 0 mm - - -
1788618615 20.56° C 86% 985.5 hPa 0 mm - - -
1788617719 20.56° C 86% 985.5 hPa 0 mm - - -
1788616820 20° C 86% 985.5 hPa 0 mm - - -
1788615919 20° C 89% 984.7 hPa 0 mm - - -
1788615019 19.44° C 89% 984.7 hPa 0 mm - - -
1788614118 20° C 89% 984.8 hPa 0 mm - - -
1788613220 19.44° C 89% 984.8 hPa 0 mm - - -

* Rain latest hour (hover to see other rain measurements)
** Current wind speed in m/s (hover to see current wind gust speed)